Wind_Speed
23 23 23 23 22 23 23 23 23 23 23 22 24 27 27 27 27 27 25 24 24 23 23 22 21 20 19 20 19 19 19 16 12 10 16 23 18 16 14 7 15 22 19 19 23 23 22 21 21 20 16 11 9 7 9 8 6 5 4 5 4 3 1 3 4 5 4 3 3 1 5 4 4 6 5 6 7 8 10 7 8 7 5 8 16 26 29 29
23 23 23 23 23 24 24 24 24 24 23 23 27 30 30 30 30 29 27 26 26 25 23 22 20 19 18 19 19 17 18 15 14 17 25 28 22 20 16 12 17 24 24 23 26 25 22 20 21 20 13 8 7 8 9 8 8 7 5 5 5 2 1 3 4 5 6 5 4 1 4 5 3 6 6 6 7 9 10 9 10 9 11 14 20 27 29 29
25 24 24 25 25 25 25 25 25 24 24 27 31 32 32 32 33 30 28 27 26 24 22 21 19 18 17 17 17 15 14 14 14 17 21 18 18 23 17 18 22 26 26 24 25 25 22 21 22 19 11 8 8 9 10 8 8 7 6 6 4 2 2 2 3 4 7 8 4 0 2 4 3 5 6 5 6 10 9 9 11 11 14 17 20 25 28 29
27 26 26 26 26 26 27 26 25 25 27 32 34 34 34 34 34 31 29 27 24 22 21 20 18 17 15 15 14 11 11 13 11 6 5 3 5 11 16 23 26 28 26 22 23 22 21 22 22 17 12 9 8 10 10 9 7 6 7 7 3 2 4 3 1 4 6 8 4 1 2 4 4 4 6 5 4 7 8 9 11 12 17 19 20 23 27 28
27 27 27 27 28 28 27 26 27 29 33 36 36 35 35 36 35 32 29 26 24 23 21 19 17 16 13 12 10 8 8 8 2 7 12 10 10 5 13 26 30 29 25 21 21 21 21 21 19 15 11 9 10 10 11 12 9 6 9 9 6 5 4 2 1 4 5 6 4 0 2 2 4 6 7 7 5 1 2 7 10 13 18 21 22 23 25 26
28 28 28 28 28 28 28 29 31 34 36 38 37 37 37 37 35 31 27 25 25 24 21 18 16 14 11 8 5 4 7 4 4 7 10 6 6 4 8 26 31 27 24 21 21 21 20 20 17 14 11 10 12 12 11 14 11 8 8 9 9 9 8 5 5 6 6 7 5 2 3 2 5 7 7 9 8 2 5 5 8 12 17 21 23 23 24 24
28 28 28 29 29 29 30 33 36 37 39 39 38 38 38 37 33 29 28 27 26 24 22 18 15 12 6 2 1 4 8 12 9 3 7 6 7 5 9 27 32 26 24 23 21 19 19 20 19 14 12 11 13 14 11 13 14 11 9 9 9 9 11 10 8 9 9 8 7 5 5 5 7 6 5 9 9 2 5 5 10 14 18 21 21 21 22 23
29 29 29 29 29 31 34 36 38 39 40 40 39 39 38 34 31 30 29 28 26 24 21 16 13 8 3 3 4 7 10 18 16 9 14 15 10 4 15 27 31 27 25 25 23 21 20 21 20 14 13 12 11 13 11 11 14 14 12 8 7 9 10 11 10 11 10 8 7 8 9 8 7 7 6 8 9 5 5 8 13 16 18 19 20 21 20 21
30 30 30 30 30 33 35 38 39 41 42 41 41 39 35 32 31 32 30 27 23 20 17 13 11 7 7 6 6 8 10 13 13 12 14 11 7 11 24 28 30 29 25 27 26 25 19 18 21 16 12 12 10 12 12 10 9 12 15 11 9 11 10 10 11 12 10 7 7 9 11 8 7 8 8 9 8 7 8 11 15 17 18 18 18 19 19 20
30 30 30 31 32 34 37 39 41 42 43 42 41 37 33 32 33 31 27 23 19 17 14 11 10 8 9 8 8 8 6 4 6 8 7 6 11 21 29 29 32 30 25 25 25 25 19 16 20 14 9 9 9 10 13 11 5 6 12 12 12 12 11 11 12 12 11 9 9 11 11 8 7 8 7 6 9 11 11 14 16 17 18 18 18 18 18 18
30 31 31 31 31 34 38 42 43 44 44 43 39 34 32 34 32 28 22 19 17 15 12 10 11 13 11 8 10 8 1 2 4 3 5 12 18 26 27 27 32 31 26 24 24 27 23 19 18 11 6 7 9 10 12 13 7 5 8 9 12 13 12 12 13 13 10 9 10 10 10 8 7 9 8 4 10 14 13 15 16 16 16 17 18 17 15 16
30 31 31 31 31 34 40 43 44 44 45 42 37 32 32 34 29 22 18 16 15 12 10 10 14 15 10 7 13 13 1 4 2 1 7 14 18 22 21 23 30 28 25 22 22 27 24 19 18 14 7 5 9 8 8 12 10 9 9 10 12 12 13 13 13 13 11 9 8 7 9 9 10 12 10 7 11 14 14 15 16 15 14 15 16 16 14 15
30 31 31 31 33 38 43 45 45 45 45 40 33 31 33 31 21 14 13 13 11 6 7 12 16 13 10 7 11 17 11 3 1 3 8 12 14 15 15 20 25 23 23 22 21 25 22 18 19 17 9 6 9 4 1 9 10 10 10 10 10 10 11 13 14 14 12 9 7 6 6 7 12 13 10 9 13 15 14 15 15 14 14 14 15 14 14 16
31 32 32 33 37 42 44 45 45 45 44 37 31 31 32 24 13 9 11 10 7 2 9 14 14 10 9 9 7 11 14 9 5 5 9 13 14 12 14 19 20 17 18 17 18 22 20 18 18 15 10 9 6 3 2 7 8 9 10 9 8 8 8 9 10 11 11 8 8 8 6 4 8 11 10 11 14 15 14 15 15 14 14 14 15 15 15 16
32 33 33 37 42 44 45 46 46 45 41 33 30 31 27 16 6 7 9 8 6 8 13 13 11 8 6 11 9 8 12 12 13 13 12 15 16 13 17 20 16 14 13 11 12 16 16 16 16 12 11 9 5 5 8 7 6 8 8 8 9 8 7 8 9 10 10 8 10 10 7 5 5 7 10 11 13 15 13 14 15 15 16 15 15 15 15 16
34 34 36 41 44 44 45 46 46 44 37 29 30 29 19 9 3 6 8 9 9 12 11 8 9 8 6 5 4 6 10 12 16 17 14 16 16 13 19 21 14 13 11 8 9 11 13 13 13 10 10 11 8 7 8 7 8 8 8 9 9 10 9 8 9 10 11 7 10 11 8 6 4 6 9 11 12 14 13 13 15 16 16 16 14 14 14 15
35 36 40 43 44 45 44 45 45 40 32 28 30 23 11 6 0 5 7 8 7 6 4 3 6 7 7 3 3 5 11 12 12 17 19 18 14 12 18 18 13 13 10 8 10 11 12 11 9 9 10 9 10 10 9 10 9 8 8 9 9 10 10 7 7 9 10 8 10 12 10 9 4 5 8 10 11 13 12 13 15 15 15 15 14 14 15 15
34 38 43 43 45 46 44 46 43 35 29 28 25 15 7 5 2 2 1 1 3 4 5 4 6 6 7 8 6 2 7 11 11 16 21 22 16 12 16 15 13 15 11 9 11 12 11 10 9 9 10 10 11 12 11 11 11 10 10 9 9 9 9 9 7 8 11 10 10 11 11 12 10 6 7 9 11 12 12 12 13 15 15 15 14 14 15 16
34 39 44 44 46 45 44 45 38 30 29 26 20 11 5 4 4 4 5 5 5 6 4 4 9 5 2 6 8 2 4 6 10 14 19 23 20 15 15 14 13 16 13 9 12 13 10 9 10 10 11 13 14 14 14 12 9 11 12 10 11 10 10 12 8 7 8 8 10 11 11 11 11 7 7 9 11 11 11 11 11 14 15 15 14 14 15 17
37 42 44 45 47 45 44 43 33 27 25 21 19 11 4 4 3 3 3 8 10 12 12 7 12 12 6 1 3 4 4 6 9 13 17 21 21 19 15 13 14 15 13 12 12 13 11 10 12 13 14 16 17 17 16 14 9 9 11 10 12 11 9 12 9 6 6 8 10 11 10 9 8 7 7 9 11 11 12 12 12 14 14 15 16 16 16 16
40 43 44 45 46 45 44 39 27 22 18 15 17 8 3 9 6 4 8 11 14 16 20 18 16 18 16 7 2 2 3 7 10 12 16 21 22 19 14 15 16 13 14 16 13 11 12 13 15 17 17 15 16 18 17 16 12 9 10 10 11 12 11 11 7 5 6 7 9 10 10 11 10 10 9 8 11 12 12 13 14 15 15 14 16 17 16 14
40 43 44 45 45 44 42 33 22 19 15 12 13 8 7 8 6 8 9 11 14 14 19 21 20 20 20 19 12 4 4 7 11 12 17 21 21 18 15 17 16 14 16 17 12 11 13 15 18 18 17 15 14 16 18 18 15 11 10 9 10 11 11 11 8 7 7 6 9 11 11 12 11 11 9 9 11 11 11 14 14 15 16 15 16 16 16 15
40 43 44 44 43 43 39 26 18 18 13 10 12 10 7 7 7 9 8 9 15 14 16 20 20 19 19 20 19 14 11 10 12 13 18 20 19 18 16 18 18 16 18 19 16 13 12 14 19 19 16 17 15 14 16 15 13 12 11 10 11 11 11 9 8 8 6 7 9 11 11 11 11 11 11 11 12 11 11 14 14 14 15 15 16 15 16 17
42 43 43 44 42 41 35 19 13 16 11 6 10 11 9 9 10 9 7 8 12 11 13 17 16 16 18 14 13 17 16 13 12 13 19 20 17 16 17 18 20 17 18 23 22 17 14 10 14 20 18 17 16 15 16 13 11 14 15 13 12 12 13 9 5 5 4 8 10 10 10 11 12 13 13 11 12 12 11 12 13 13 14 14 15 15 16 17
43 43 42 44 41 39 30 10 9 18 12 3 9 15 14 12 10 8 7 6 8 7 7 12 10 10 14 12 12 15 14 14 15 14 17 21 18 15 15 14 15 18 21 25 23 17 16 10 10 19 20 18 18 16 16 14 10 13 17 18 16 12 13 12 8 5 6 8 9 9 10 10 12 16 14 9 10 12 11 12 14 13 13 14 14 15 16 17
42 41 42 42 38 36 23 6 11 20 11 4 13 19 16 13 10 7 6 4 7 5 7 7 7 7 10 11 12 12 10 14 17 16 16 21 20 14 13 11 10 17 21 20 15 10 14 14 12 17 19 19 19 16 17 17 11 11 13 16 19 16 14 13 11 8 8 8 7 7 9 10 10 13 11 8 10 11 11 12 13 13 13 14 13 14 15 16
41 40 41 40 35 29 16 7 14 16 8 9 19 21 17 13 10 6 4 5 6 4 7 3 3 6 8 10 15 13 5 6 13 18 19 21 21 15 14 15 12 15 15 12 11 10 13 18 16 18 19 17 17 14 16 17 12 10 10 11 16 18 17 15 12 10 8 9 7 8 9 10 10 11 10 10 11 12 13 13 13 13 15 15 15 16 16 17
40 40 39 38 31 20 11 11 14 11 10 16 21 20 16 12 8 5 5 5 2 5 6 3 3 4 5 8 17 14 3 6 10 16 21 23 22 15 15 19 17 17 18 14 12 12 16 20 19 20 18 13 13 14 16 18 14 11 7 6 10 14 16 15 11 11 9 9 10 11 12 10 10 11 10 11 12 12 13 14 15 15 16 17 17 17 18 18
40 39 38 37 28 14 10 11 10 10 15 21 21 19 17 11 6 4 5 5 2 4 2 3 4 5 6 9 16 14 4 3 3 8 20 23 22 16 13 17 18 18 21 18 14 12 13 18 19 18 15 12 13 14 16 18 15 11 7 5 8 10 12 12 10 10 9 11 13 13 14 11 11 11 11 12 13 13 13 13 14 16 16 17 17 18 18 17
40 39 37 36 24 12 12 11 8 13 20 22 22 21 15 8 5 5 7 5 1 3 2 4 4 3 7 9 12 15 12 7 2 8 16 17 21 19 11 13 16 15 17 18 17 14 9 11 15 15 14 13 12 12 15 17 16 13 9 7 8 8 9 9 9 8 9 13 14 15 16 13 12 11 10 12 12 13 13 13 13 15 16 17 17 17 17 16
39 38 36 30 17 11 12 10 11 18 21 23 24 20 11 5 5 7 7 1 2 1 2 4 2 2 5 6 7 11 15 11 5 11 14 13 18 18 11 11 13 11 14 14 16 18 12 10 12 13 15 15 12 12 13 14 16 13 9 8 8 7 7 7 7 8 11 12 11 14 17 16 14 11 9 12 14 15 14 13 14 14 16 17 16 16 16 16
39 38 32 21 9 7 10 12 19 21 20 24 22 12 6 5 8 10 6 2 1 1 4 3 2 3 4 6 7 9 12 12 9 12 14 13 15 17 16 14 12 12 14 13 14 17 16 13 11 13 17 17 14 12 11 12 14 13 10 9 9 7 7 8 9 10 11 10 8 11 14 15 15 11 10 13 14 16 15 13 14 14 15 15 16 16 15 15
38 35 27 15 5 6 10 16 20 19 20 23 16 6 5 8 8 7 7 6 2 7 8 8 9 10 9 8 6 8 10 11 12 13 14 15 14 17 20 19 17 15 11 11 13 13 13 13 16 16 14 17 17 12 10 11 13 13 11 10 10 8 8 9 10 9 9 9 10 10 9 11 12 10 13 18 15 13 13 12 13 13 13 13 15 16 15 16
37 30 20 11 5 7 13 17 17 17 19 17 9 5 8 11 7 4 5 5 8 10 10 11 14 13 11 8 4 5 7 10 13 14 13 15 14 14 17 20 23 17 9 11 12 12 14 12 17 19 12 16 21 16 12 11 11 14 12 10 10 9 8 7 7 9 9 8 11 12 8 8 7 2 6 13 15 15 14 14 14 13 14 13 14 16 15 16
33 24 14 7 5 9 14 17 17 16 15 11 6 7 9 10 7 5 4 7 10 11 13 15 14 12 9 7 4 2 4 6 13 14 12 14 14 13 15 18 22 19 12 11 9 12 17 12 13 20 15 17 22 18 15 13 11 12 12 11 11 10 8 6 4 6 6 6 9 11 8 6 4 1 1 5 10 14 15 15 15 15 15 14 13 15 15 15
27 19 10 4 7 13 16 17 16 14 11 7 6 7 7 7 6 4 6 10 11 12 16 15 9 9 8 6 6 5 3 2 9 12 10 13 13 13 14 12 15 20 15 11 8 10 13 10 12 20 19 18 21 19 18 15 9 9 12 13 12 11 10 8 5 4 4 7 7 8 9 8 6 7 8 9 9 11 13 14 14 14 14 14 12 13 15 15
21 17 10 5 11 17 17 17 15 12 8 5 7 7 6 7 7 8 9 11 12 13 13 9 3 4 6 5 4 5 2 3 8 9 9 13 9 3 5 2 2 9 7 5 8 9 9 8 11 19 21 19 19 20 20 18 12 8 11 13 11 11 11 8 7 6 7 9 8 9 12 11 8 7 8 14 14 12 13 14 14 14 13 13 13 13 15 16
18 17 8 6 17 20 18 16 13 9 6 5 8 7 6 6 8 10 11 11 12 12 10 8 5 5 5 4 2 1 3 3 7 9 9 12 6 5 2 1 3 2 4 5 5 7 8 7 10 17 20 18 18 18 17 19 19 12 9 11 11 10 10 8 7 8 9 9 8 11 13 10 9 6 4 10 15 14 14 13 13 14 14 13 14 14 16 15
16 12 4 11 22 21 19 17 11 7 5 5 6 5 5 7 9 11 12 12 11 10 10 10 8 6 5 6 7 5 5 4 2 6 7 6 2 5 6 2 2 5 6 4 5 4 6 7 7 13 18 17 15 14 13 15 19 15 10 11 11 8 8 9 8 7 8 8 7 9 11 8 8 9 8 8 10 11 13 13 13 14 14 14 13 14 14 14
12 6 3 17 24 23 22 17 10 5 5 5 5 5 7 9 10 11 12 12 10 8 9 11 9 9 8 8 8 6 6 6 5 4 3 1 2 5 8 7 5 7 5 4 8 6 6 8 5 10 17 16 12 13 15 15 15 14 12 12 12 9 7 8 9 8 8 8 7 7 7 4 1 5 11 12 11 11 11 11 12 13 14 14 14 13 13 13
10 5 5 19 24 24 22 12 4 4 5 4 5 7 9 9 10 11 12 12 10 8 10 12 11 11 10 9 9 6 6 7 6 4 1 2 2 4 7 10 8 7 4 5 9 6 5 7 7 8 12 13 12 13 17 17 16 15 12 12 13 11 9 8 9 10 9 8 7 6 6 3 3 3 5 7 9 10 10 11 11 11 12 12 12 12 11 11
8 5 8 18 22 22 16 5 3 5 4 5 7 8 9 9 10 12 11 11 10 9 10 11 12 11 11 10 9 8 6 6 6 4 1 4 6 7 8 10 10 8 5 5 7 3 2 5 8 8 9 10 12 15 18 19 19 18 14 13 13 12 11 9 8 8 9 9 8 7 7 3 5 5 2 1 4 6 7 9 9 9 10 9 9 9 8 8
5 7 10 15 18 19 11 2 5 5 4 8 9 9 9 8 9 11 10 10 10 8 8 9 10 10 10 9 9 10 8 6 4 3 1 5 7 8 9 11 11 7 4 2 2 1 2 5 8 8 7 8 9 12 16 19 19 17 15 15 15 15 13 10 8 7 7 10 9 7 8 5 5 4 3 4 5 5 5 6 7 7 7 7 7 6 5 6
6 7 7 10 14 13 7 4 6 6 6 10 11 9 8 7 8 11 11 9 7 7 8 8 8 8 9 9 9 9 7 5 2 1 1 2 5 6 9 11 11 8 5 4 3 0 4 8 10 9 7 8 8 10 13 17 16 13 13 17 17 18 18 14 11 8 8 10 11 9 7 4 5 5 4 4 5 4 3 4 4 4 5 5 4 2 3 4
7 5 3 8 11 8 5 5 6 6 8 11 12 10 9 7 7 10 11 9 7 8 9 8 9 10 9 9 10 10 8 7 3 1 1 1 4 5 8 10 9 9 8 9 8 4 4 7 10 11 11 11 11 9 8 11 14 11 12 19 21 21 22 16 10 10 9 10 12 10 6 3 7 7 6 6 6 4 3 2 2 3 4 4 2 1 2 4
6 4 5 8 6 4 4 4 5 7 8 9 9 9 10 9 7 9 10 7 7 10 10 8 11 11 9 9 9 11 9 8 5 2 2 1 2 4 6 7 7 10 11 12 9 5 4 5 6 6 5 5 3 2 3 2 11 16 17 20 20 21 22 16 11 10 9 9 11 11 8 5 8 9 8 7 6 3 2 3 4 3 1 0 1 0 2 4
5 5 7 7 5 5 5 5 6 7 8 9 7 7 10 11 9 8 8 6 8 11 8 6 10 11 10 11 8 8 7 7 6 3 2 2 3 3 3 3 6 10 11 10 8 5 4 5 4 3 2 2 3 4 5 3 7 15 18 20 20 20 21 19 15 12 9 9 10 10 12 11 9 10 8 5 3 3 3 5 6 3 3 3 2 2 3 5
5 5 6 5 5 6 6 7 9 10 10 9 6 6 10 11 10 9 7 5 7 10 6 4 9 12 11 12 9 5 4 6 6 3 2 3 5 4 1 3 5 9 9 7 8 5 4 4 3 3 3 2 2 2 2 1 2 5 10 14 17 19 21 20 18 16 13 10 8 7 12 14 12 11 10 7 6 6 6 7 7 6 6 5 3 5 7 5
5 5 5 5 6 7 8 10 11 11 10 7 5 5 9 11 10 9 7 7 5 6 6 7 10 13 11 10 9 6 4 3 2 2 4 6 6 5 2 2 3 7 8 6 6 6 4 0 2 3 4 3 4 2 1 1 2 4 7 9 11 14 16 16 16 17 17 15 12 11 13 13 12 12 13 12 10 10 9 9 10 12 13 11 8 9 10 7
4 4 5 6 7 8 8 9 9 9 7 5 4 6 8 10 11 10 9 9 7 4 7 9 11 12 10 9 8 6 8 9 6 6 8 8 5 4 3 1 3 7 8 6 5 6 4 1 2 4 4 5 5 4 4 3 4 6 9 10 11 12 13 13 12 13 15 14 14 15 14 12 10 9 10 10 8 8 8 10 12 13 15 16 14 13 11 10
5 5 4 5 6 7 8 7 7 7 5 3 4 7 8 9 10 11 10 6 4 3 7 11 12 10 9 8 7 7 8 10 11 10 10 9 7 5 4 4 6 8 6 5 5 5 5 2 1 3 5 6 6 6 6 5 6 10 12 13 14 13 13 12 11 12 12 12 14 15 13 10 8 8 8 8 9 10 11 12 12 12 14 16 15 14 13 12
6 4 3 4 6 7 8 7 7 6 4 4 6 8 9 9 10 11 8 3 1 3 7 10 11 8 7 7 7 8 10 12 13 12 10 10 10 9 8 8 9 7 5 5 5 3 4 4 2 2 5 5 6 5 4 4 7 11 12 15 17 16 14 14 13 14 14 13 13 12 10 8 8 9 10 10 11 13 13 12 12 12 13 15 16 15 15 15
Wind_Direction
357 356 354 353 351 349 347 345 343 342 341 339 345 348 346 344 340 337 333 331 330 327 323 321 318 318 316 315 315 314 321 320 294 248 236 254 254 234 242 241 191 179 166 162 163 164 168 178 179 175 181 185 204 204 189 205 213 207 222 238 248 252 289 35 36 22 356 351 19 174 201 206 167 161 146 156 166 144 156 150 129 132 100 104 122 135 147 152
356 355 353 352 349 348 345 343 342 341 339 341 345 346 345 343 339 336 333 330 328 324 322 318 315 315 313 312 312 317 326 309 276 255 253 262 264 252 240 219 193 173 164 162 165 170 169 175 176 173 181 181 193 193 181 195 206 212 223 233 245 261 31 31 13 13 356 346 360 281 213 220 192 163 173 186 169 154 162 154 145 135 117 120 130 140 149 155
355 354 352 350 348 346 343 342 341 339 340 344 346 344 343 341 338 334 330 328 324 323 322 317 315 313 311 310 310 323 325 298 273 260 261 267 252 244 227 200 193 172 167 171 170 174 172 170 171 172 184 186 189 187 184 190 199 215 230 238 242 271 285 290 321 355 4 357 356 174 196 220 194 159 186 203 173 174 181 165 162 153 139 137 142 148 153 160
354 352 351 349 347 344 343 341 340 341 344 345 345 343 341 339 336 332 328 325 321 321 318 316 313 309 310 307 310 330 317 283 273 245 204 133 161 213 207 194 188 175 174 176 173 176 174 168 170 177 188 193 192 192 197 191 191 208 220 243 265 284 259 220 271 348 2 357 4 73 189 213 192 180 199 207 189 193 199 181 176 166 153 149 151 157 160 164
353 351 350 348 346 344 342 341 342 345 345 345 344 342 340 337 334 329 326 323 320 318 313 310 304 303 307 304 314 329 300 273 299 116 132 107 85 110 190 191 185 178 177 177 176 178 175 170 174 186 195 198 189 193 208 198 201 221 218 240 258 266 261 188 259 328 341 338 349 19 245 216 182 205 211 209 214 202 162 176 177 169 158 154 156 161 164 168
352 351 349 347 345 343 343 344 346 347 345 344 343 340 338 335 332 327 325 321 317 313 307 303 296 297 300 304 327 295 261 258 55 113 145 108 43 16 189 188 184 180 179 178 178 178 177 175 179 189 200 206 195 196 208 198 206 233 223 227 238 251 262 262 278 293 306 310 313 308 282 237 210 226 216 214 228 46 69 151 163 161 158 156 157 163 169 172
352 350 348 346 345 344 346 347 347 347 345 344 341 338 336 333 330 327 324 318 314 309 302 295 286 287 293 320 276 233 239 256 276 235 222 270 316 317 189 184 182 181 185 180 178 181 179 179 186 192 198 206 203 203 205 195 205 230 238 228 229 242 252 260 270 273 281 286 287 291 275 242 235 245 215 215 228 144 93 142 145 147 154 157 160 167 174 174
352 350 348 346 344 345 347 347 347 346 344 343 340 338 334 332 329 326 322 315 310 304 295 284 274 268 207 172 239 241 236 250 259 256 261 273 290 247 175 178 181 185 189 185 179 181 182 184 191 192 200 207 204 202 196 193 208 225 240 242 239 245 249 257 262 264 270 272 272 268 261 247 238 256 246 225 218 177 132 141 139 145 155 161 166 170 176 177
351 349 348 345 343 344 345 347 346 345 343 341 339 336 332 331 328 324 319 312 307 299 289 272 257 228 175 193 246 258 248 251 254 253 262 266 252 185 167 172 184 188 190 189 182 181 185 189 192 194 206 207 200 202 194 198 213 217 231 243 247 250 252 256 261 263 264 261 262 260 259 251 235 249 252 235 212 172 149 145 142 150 160 164 169 173 177 179
350 349 347 344 342 343 346 347 346 344 342 340 338 335 332 331 326 322 317 309 302 293 283 256 228 188 177 203 232 249 254 259 262 257 243 193 171 169 168 173 182 188 191 190 186 185 188 192 194 197 220 214 201 204 198 208 225 199 221 238 246 255 257 256 260 261 264 261 255 257 261 258 232 227 235 218 186 166 155 152 150 157 165 168 171 174 177 181
349 348 346 344 342 343 347 348 346 344 341 339 337 334 333 330 325 320 313 307 299 286 271 237 196 176 186 212 227 233 312 316 283 278 203 171 164 169 176 178 179 186 190 188 190 189 191 196 192 194 223 210 197 207 209 216 239 229 230 246 246 253 253 250 255 254 256 254 249 251 259 257 221 213 231 201 158 166 167 160 159 165 169 170 172 173 177 183
349 348 345 343 341 343 347 347 345 343 340 339 337 335 333 329 325 318 312 312 304 281 252 214 179 174 192 221 233 233 296 1 332 183 183 174 171 176 181 181 182 188 188 187 192 191 194 195 191 196 202 187 192 208 216 211 228 241 242 259 254 252 250 242 243 244 240 240 238 242 254 242 211 211 224 194 161 172 177 167 166 170 170 172 173 173 177 182
349 347 345 343 342 344 347 347 345 342 340 338 336 335 333 330 325 320 325 327 316 281 217 187 171 180 207 228 240 239 238 262 16 126 169 174 175 179 183 183 184 190 193 192 191 189 195 194 194 205 207 208 201 178 192 201 216 235 234 253 259 254 245 230 228 228 228 235 221 216 245 223 198 207 210 180 173 180 181 176 173 172 171 174 176 175 178 182
348 346 344 344 345 346 347 347 344 341 339 338 337 336 333 330 327 337 353 351 346 154 168 166 169 183 216 243 263 251 236 232 242 196 169 172 169 167 174 176 180 191 197 200 194 189 195 195 200 212 215 229 219 151 206 203 205 228 230 234 245 252 230 201 205 210 212 209 188 203 242 225 176 186 191 175 180 187 187 184 179 176 173 175 178 178 180 183
347 345 344 346 348 348 347 346 344 341 338 339 339 337 332 326 336 13 24 26 52 123 142 152 177 192 234 256 257 255 238 226 228 210 180 177 172 166 170 169 174 180 181 196 197 190 197 199 202 213 208 218 236 202 214 212 201 216 224 221 221 236 219 173 172 197 209 188 179 204 238 237 169 161 173 171 186 195 195 191 185 182 177 176 179 181 182 183
347 346 346 348 349 348 346 345 344 340 338 340 339 336 331 319 354 43 51 62 88 122 139 155 190 217 272 273 195 212 219 213 219 205 187 183 176 167 169 169 168 167 171 185 187 187 198 203 204 217 210 205 216 216 216 216 211 208 219 232 217 215 220 188 168 198 219 203 192 209 232 236 171 148 170 173 191 199 200 200 191 188 183 179 181 182 184 183
348 348 349 350 350 348 346 344 343 341 339 341 339 336 331 310 219 89 71 76 98 135 189 217 186 215 265 266 162 211 212 202 203 195 192 189 179 161 162 171 173 169 175 178 184 190 192 202 205 212 217 212 209 211 220 215 211 204 207 233 229 217 224 201 163 181 204 212 209 208 227 246 210 158 180 184 195 201 205 205 195 192 188 184 185 184 184 183
347 349 351 351 350 347 346 344 343 342 341 342 341 338 336 317 214 138 75 143 185 205 240 239 193 218 249 227 212 208 199 195 186 189 195 193 190 173 162 172 174 170 175 174 185 190 186 197 203 207 214 215 210 205 215 214 211 212 203 218 227 221 232 223 187 164 183 209 219 210 217 236 236 211 190 191 197 203 210 210 200 196 191 188 190 190 187 185
348 350 352 351 349 346 345 344 344 345 342 345 349 339 321 302 229 216 234 224 218 220 241 178 189 234 317 202 208 156 130 171 178 186 193 193 194 190 179 179 173 174 183 179 183 188 186 194 199 211 212 206 210 210 215 218 221 227 216 214 222 219 227 227 207 169 191 224 227 226 230 231 235 220 191 194 199 205 213 212 205 200 195 191 191 195 193 190
350 352 352 350 348 345 344 345 347 348 347 355 351 326 288 330 270 211 249 252 243 249 274 256 216 249 287 159 184 201 188 179 190 191 186 185 184 186 188 182 176 182 192 186 182 184 189 204 205 211 212 206 209 213 220 225 229 241 226 218 227 228 225 220 209 184 214 247 237 235 247 244 242 235 217 203 199 206 212 210 208 203 200 197 195 197 196 194
351 352 352 349 347 344 343 346 351 356 3 9 356 346 43 10 340 328 328 285 255 246 260 259 240 248 254 248 113 110 215 198 202 197 178 176 176 179 183 179 180 189 197 192 183 179 194 215 214 209 213 212 209 211 219 225 225 232 230 225 229 231 234 227 205 184 212 248 247 242 251 250 247 250 242 212 200 207 210 211 211 205 203 202 199 198 195 193
351 353 352 349 346 343 342 346 358 10 17 19 19 47 56 15 341 313 311 290 275 250 244 248 245 244 246 247 241 241 281 222 203 192 173 174 181 182 178 180 188 189 191 193 187 186 203 220 217 208 210 215 216 213 213 221 225 228 232 235 235 229 233 229 206 209 230 245 252 250 255 257 253 252 244 216 206 208 212 216 214 207 206 204 202 199 193 189
351 353 351 349 345 340 340 346 4 15 12 18 33 43 20 353 337 306 280 281 288 262 232 232 234 233 232 238 235 227 241 230 207 191 175 181 191 188 181 184 194 191 188 196 196 192 205 218 214 209 208 211 214 208 206 214 223 229 231 232 235 230 230 227 200 202 230 244 258 266 267 264 257 248 238 223 213 209 212 217 217 212 210 208 205 200 194 190
352 353 350 349 344 338 341 347 8 10 352 358 29 24 358 336 335 318 282 270 282 271 236 222 221 229 225 217 206 204 219 226 216 196 179 186 194 190 193 190 192 197 194 199 202 205 213 210 204 208 208 206 205 201 204 213 222 228 230 231 236 231 232 237 202 179 224 236 246 264 270 263 253 248 241 221 207 208 210 211 214 215 213 211 208 203 199 194
351 352 350 350 345 339 340 348 15 358 329 301 9 0 346 332 333 320 293 268 264 260 217 208 211 226 216 193 180 189 209 224 221 206 183 190 197 189 196 198 196 203 200 200 205 215 222 205 188 205 205 201 207 210 210 213 224 227 225 229 237 239 238 240 235 232 246 237 227 239 257 257 244 246 245 216 196 202 201 203 209 210 210 211 209 205 202 198
350 350 349 348 346 342 342 352 357 342 319 323 350 342 335 330 326 301 281 273 260 220 154 180 194 182 178 177 178 180 208 225 216 209 192 194 203 199 196 196 203 211 201 198 207 221 223 206 188 201 201 201 213 219 212 210 223 232 221 222 230 237 241 238 236 237 247 252 231 217 246 262 251 245 235 205 201 199 191 201 206 204 207 208 208 207 202 201
348 349 348 346 346 346 344 333 335 335 330 337 335 330 328 326 318 289 259 263 256 164 132 162 178 162 167 172 174 175 194 197 188 200 199 192 199 209 211 199 198 211 199 193 212 215 212 204 190 196 201 204 214 218 208 205 218 231 220 220 223 225 231 234 238 242 249 261 246 211 231 261 260 247 229 209 209 199 189 199 203 202 206 206 208 208 204 202
346 346 347 345 342 342 332 312 319 335 339 326 323 323 323 320 301 265 259 270 236 118 119 123 116 159 171 167 182 187 127 117 170 192 191 190 195 205 218 209 202 205 198 197 213 202 199 203 193 192 201 206 212 213 203 201 216 226 214 224 225 220 226 232 239 246 247 254 247 225 226 248 255 246 240 228 220 212 203 204 205 204 204 206 209 210 207 204
344 345 347 343 337 336 328 307 299 321 329 321 318 318 315 304 277 244 252 263 181 116 99 131 139 169 154 159 194 211 207 174 198 175 178 188 199 206 222 218 210 208 205 209 217 204 196 206 201 195 202 210 208 209 204 200 213 219 198 203 216 217 226 229 235 244 243 245 245 232 226 240 254 244 234 227 222 223 224 217 211 207 204 205 208 210 208 204
343 343 345 342 335 331 323 301 286 318 326 321 316 314 305 275 244 224 224 245 182 88 91 149 158 168 159 168 199 217 223 220 124 152 180 187 194 206 226 224 218 218 212 212 223 224 203 200 207 203 209 214 205 206 208 204 210 211 196 197 211 213 222 226 229 237 243 243 240 233 229 239 255 248 231 229 225 222 229 230 220 207 203 205 206 209 208 203
341 341 343 341 328 315 314 307 319 326 325 322 318 309 287 234 235 234 213 257 359 52 100 131 142 167 188 208 212 202 208 218 175 163 182 180 186 199 207 210 216 219 214 210 220 225 209 191 204 208 211 213 208 208 207 202 207 210 201 205 216 209 209 220 216 218 236 243 234 228 227 233 247 245 230 235 230 222 226 233 225 209 203 203 202 205 206 203
340 340 345 346 325 303 303 307 320 322 321 321 316 299 259 225 230 231 228 304 339 27 19 21 348 310 279 276 251 202 198 212 200 177 182 183 185 193 197 197 191 197 210 206 206 216 214 206 202 202 207 206 205 206 198 193 202 207 204 205 210 198 193 207 208 211 231 239 233 229 224 229 243 246 237 239 234 226 226 232 231 221 212 202 198 202 202 201
340 343 349 353 335 300 303 311 316 317 321 319 307 277 249 240 229 230 250 266 1 15 346 329 320 308 291 274 236 202 204 205 193 188 191 191 192 195 202 205 199 201 212 201 197 207 212 212 204 200 200 200 202 203 194 191 196 200 201 202 203 196 194 204 209 216 231 233 224 220 221 235 249 250 236 233 232 227 223 225 230 229 224 209 197 201 201 199
342 347 345 342 332 308 313 316 315 316 319 314 295 259 242 236 242 270 265 291 356 348 324 322 320 303 276 254 212 185 221 210 189 189 190 191 199 198 200 207 208 211 218 205 202 203 206 209 202 198 189 188 199 208 201 191 192 199 202 207 210 211 210 209 210 218 228 228 209 198 204 234 241 246 231 227 222 220 223 228 229 227 227 218 201 199 200 199
345 346 333 324 332 325 323 317 313 316 313 302 284 260 242 237 252 283 318 349 350 335 326 320 302 285 264 236 209 204 245 213 190 195 195 195 202 200 198 204 207 209 215 213 204 202 213 218 192 192 192 185 194 204 202 192 192 197 199 209 214 214 221 228 243 247 248 243 211 196 210 234 236 323 253 214 209 211 218 224 223 221 220 218 206 199 198 199
343 340 331 332 338 332 329 320 314 310 298 287 275 256 248 255 275 319 347 347 341 333 327 313 277 259 255 221 187 188 233 249 196 197 201 199 201 202 198 198 204 208 213 218 208 197 215 219 176 183 194 193 192 195 196 195 193 189 196 211 210 206 220 233 245 261 269 253 225 205 224 237 255 263 231 212 210 206 209 213 214 214 213 210 205 199 198 199
336 333 325 328 342 338 330 320 313 299 277 264 265 268 281 288 312 341 336 330 329 326 319 309 290 286 269 234 179 169 231 262 199 199 207 196 189 200 198 153 185 215 225 253 227 203 211 210 169 178 191 191 189 192 195 200 204 196 195 201 197 203 222 233 233 222 222 239 233 221 231 230 231 246 214 206 212 208 205 210 212 211 207 205 203 200 201 200
325 322 306 340 348 340 330 320 307 285 263 255 258 263 286 299 324 336 328 322 316 313 307 291 296 321 306 291 315 21 304 252 186 197 210 190 170 21 350 66 43 355 340 326 248 204 209 210 167 178 190 182 181 192 196 200 210 218 205 189 189 202 207 208 225 223 217 231 237 228 234 236 228 230 196 200 211 212 208 208 212 212 206 206 205 201 204 203
323 317 310 8 351 337 332 318 294 274 265 270 271 269 297 312 324 327 325 320 305 299 295 281 277 285 294 309 322 333 310 292 215 216 218 195 169 36 22 348 351 352 340 283 247 211 208 220 179 179 188 177 176 197 199 193 203 215 213 195 197 208 203 199 211 223 225 233 238 229 228 234 232 228 223 212 206 208 208 206 212 216 210 208 209 204 201 200
329 313 6 8 349 335 330 308 273 282 287 284 301 313 324 324 322 321 322 318 302 285 283 286 289 278 273 289 298 309 308 298 300 265 238 65 95 77 37 8 339 337 335 242 241 241 216 227 207 174 182 182 184 199 200 191 190 200 205 200 198 199 205 209 210 217 232 237 239 238 232 232 242 224 224 223 216 212 215 213 212 217 217 213 212 211 202 196
324 302 3 3 347 335 329 303 269 328 312 322 331 321 327 324 317 318 318 315 299 276 275 282 287 282 277 280 279 288 303 287 282 285 275 51 51 68 34 7 344 322 309 210 216 228 218 219 213 181 180 192 197 194 198 199 192 193 201 200 197 196 199 207 207 211 225 238 240 246 249 241 88 126 196 205 212 216 221 225 220 218 222 219 215 213 204 197
325 328 347 351 343 334 326 307 5 348 329 357 339 319 330 327 317 319 320 321 307 283 273 270 274 276 271 275 275 272 285 286 281 290 26 61 39 36 22 359 342 315 279 207 194 218 289 229 216 201 188 203 204 189 195 203 196 196 205 201 198 201 202 205 204 200 211 229 238 246 258 249 117 125 150 179 222 225 217 224 229 226 225 223 223 220 205 196
338 327 327 340 341 333 326 338 6 350 356 357 335 324 334 329 325 327 329 335 323 300 288 272 270 274 272 279 279 266 264 271 278 289 53 78 56 31 11 359 347 332 302 237 155 110 260 224 216 214 201 204 201 183 193 206 201 201 208 205 205 206 205 211 218 210 209 219 219 224 242 231 141 157 232 236 221 218 203 207 222 227 226 226 235 240 218 194
332 312 316 344 345 336 339 12 358 345 350 344 333 339 349 341 342 340 336 343 338 318 310 295 287 289 287 285 273 266 264 250 240 327 310 67 63 29 10 6 357 1 21 4 355 313 216 209 207 212 197 186 188 184 195 205 207 210 209 205 209 210 207 212 221 226 229 222 215 218 231 214 136 158 188 180 182 187 187 202 209 215 230 239 243 229 179 179
328 318 335 350 348 348 9 20 349 339 347 340 334 344 350 347 359 351 336 338 351 339 322 315 317 309 298 287 261 250 257 256 268 334 259 92 70 39 13 8 5 16 20 354 335 303 244 211 205 210 205 196 192 189 195 201 202 209 211 206 208 210 208 210 216 221 225 221 219 225 228 143 121 154 178 168 170 179 189 220 223 212 230 244 256 78 141 180
337 341 349 345 342 351 6 6 346 340 345 338 333 342 343 340 355 356 340 342 6 354 329 322 337 330 322 316 271 237 240 254 270 295 237 244 54 44 18 9 18 17 356 341 335 303 249 213 215 231 231 219 197 122 12 260 202 199 206 208 207 208 209 210 217 219 215 219 226 229 229 192 150 161 175 170 171 178 208 267 263 235 229 4 49 353 216 205
348 345 351 344 329 339 347 347 347 343 336 330 329 335 335 335 344 353 350 353 5 358 333 321 353 355 350 343 308 248 240 243 242 249 258 320 357 21 30 26 26 9 346 341 353 325 234 195 212 262 305 335 354 20 13 335 210 199 203 207 208 208 209 212 220 220 209 219 228 217 218 224 200 174 171 173 196 229 246 264 265 268 344 354 5 319 268 217
350 341 354 342 315 326 334 330 331 327 323 326 326 325 330 336 342 350 354 346 353 5 358 335 355 359 354 346 327 289 258 239 230 242 285 336 345 332 54 94 50 14 351 351 14 352 263 199 184 238 264 281 298 333 3 329 235 211 209 207 207 209 211 216 224 224 220 228 238 216 213 225 228 223 229 237 247 255 259 271 279 285 296 301 320 326 302 240
343 328 345 336 314 311 312 311 313 314 320 325 320 327 334 335 343 353 346 319 318 5 9 345 348 351 346 340 332 330 339 306 260 21 352 339 341 325 284 155 84 26 1 356 19 0 306 198 83 285 271 237 226 241 262 234 222 224 225 217 213 216 219 224 229 231 233 236 241 239 236 235 235 243 254 257 254 258 263 271 279 282 287 294 301 304 295 269
339 330 334 323 313 307 304 306 309 309 318 318 313 344 344 332 340 349 335 320 318 355 5 347 341 340 334 331 326 325 345 346 335 343 341 330 333 340 317 302 29 9 355 356 10 350 325 34 30 310 269 214 208 206 204 224 237 237 236 230 226 226 225 226 229 233 238 241 241 244 249 247 240 246 261 265 265 269 269 272 277 281 287 290 287 284 280 268
324 322 320 310 310 310 306 311 313 307 313 321 328 345 340 328 336 336 331 348 6 352 348 338 330 328 318 315 314 306 322 329 314 308 316 309 306 320 316 318 339 341 340 350 351 333 325 336 343 278 241 203 185 195 209 231 252 247 238 230 226 225 225 224 223 225 230 235 240 244 246 245 245 249 255 259 264 269 268 270 273 276 279 282 280 276 269 260
326 319 315 298 297 303 307 308 308 305 314 329 326 326 321 319 328 327 331 29 88 298 321 320 315 318 309 304 313 311 309 306 296 295 299 289 284 289 287 289 302 308 313 322 321 316 316 314 308 251 237 191 157 186 227 241 245 245 235 224 222 221 223 225 223 224 225 227 234 241 243 246 249 249 249 249 253 257 259 261 265 267 271 275 276 275 273 274
Height
820 818 816 814 813 811 809 807 806 804 802 800 797 796 794 792 790 788 787 785 784 783 782 780 779 779 777 775 774 773 771 771 770 770 765 752 751 755 756 757 758 761 764 766 768 769 771 773 773 774 777 777 778 776 776 776 773 781 791 798 794 784 777 770 769 768 767 765 761 758 756 761 767 762 756 757 761 765 769 770 770 770 769 771 773 779 787 793
820 818 816 814 812 810 808 806 805 803 801 799 797 795 792 791 788 786 785 783 782 781 780 778 777 777 776 774 773 772 770 769 768 763 752 746 749 751 753 756 757 759 762 764 765 765 767 770 770 772 775 778 778 774 777 776 774 783 789 794 788 776 770 763 764 763 761 763 759 757 756 758 763 761 758 764 770 768 773 775 773 776 776 775 777 782 789 793
819 817 815 813 811 809 807 805 804 802 800 798 796 793 791 789 787 785 783 781 780 779 778 776 775 775 774 773 772 771 770 768 764 754 743 743 746 746 750 753 754 757 760 761 762 763 765 767 768 772 775 778 776 774 779 777 776 779 783 791 781 768 767 761 761 761 758 757 757 758 756 758 758 756 759 765 770 770 774 775 775 780 780 779 780 783 789 792
819 817 815 813 811 808 806 804 802 800 798 796 794 792 789 787 785 783 781 779 777 776 775 774 774 773 773 772 771 771 770 768 756 742 740 741 742 744 748 750 752 755 758 759 761 763 764 766 768 770 775 778 775 774 779 776 775 777 779 785 773 765 769 762 759 759 756 755 757 758 758 761 756 754 760 764 772 774 768 765 768 774 776 777 779 782 787 791
819 817 814 812 810 807 805 803 801 799 797 794 792 789 787 785 783 780 778 777 775 774 773 773 772 771 771 771 771 770 772 768 747 735 740 741 741 744 746 748 751 753 756 759 760 761 763 765 767 771 774 776 775 777 778 771 770 775 775 774 768 766 770 761 756 758 757 756 757 759 761 759 754 756 759 763 772 768 758 755 758 764 769 772 776 781 785 788
819 816 814 812 809 807 804 802 800 797 795 792 790 787 785 782 779 778 776 774 773 772 771 770 770 770 770 770 770 771 772 761 740 737 741 739 742 743 745 747 750 754 755 757 757 759 762 764 769 773 773 772 774 775 774 766 767 777 773 767 767 767 768 762 757 758 756 758 761 759 757 753 757 761 756 759 764 755 749 749 752 758 764 769 773 779 782 785
819 816 814 811 808 806 803 801 798 796 793 790 788 785 782 779 777 775 773 771 770 769 768 768 768 768 768 770 770 770 768 751 736 740 740 739 742 742 745 747 750 754 753 754 755 757 760 764 768 769 771 772 771 770 767 765 767 776 773 765 765 764 765 761 757 757 755 759 758 753 753 754 762 761 754 757 755 748 749 747 750 756 762 768 773 778 781 782
818 816 813 811 808 805 802 799 797 794 791 788 785 782 779 776 774 772 770 769 766 765 765 765 766 766 768 770 769 766 759 744 735 740 738 739 741 741 745 747 751 752 750 751 750 753 757 762 764 763 770 769 764 766 764 767 771 773 772 765 763 762 761 758 756 756 754 754 752 751 756 756 756 755 754 756 751 747 749 748 751 758 763 769 773 777 780 782
818 816 813 810 807 804 801 798 795 793 789 786 784 780 777 774 771 769 767 765 763 763 761 762 763 764 767 767 766 762 748 735 735 738 737 738 738 739 742 745 749 749 748 749 746 751 754 759 759 757 764 763 760 763 762 771 773 766 767 764 762 762 757 756 756 754 753 751 749 754 758 753 747 751 756 751 746 746 748 752 755 759 766 769 772 776 778 781
818 815 813 810 806 803 800 797 794 790 787 784 781 777 774 771 769 766 764 762 760 759 758 760 761 763 767 765 765 759 740 732 736 735 736 737 737 738 740 741 744 745 746 746 745 748 749 753 752 749 756 758 759 762 762 768 764 756 761 762 760 760 755 755 756 752 751 748 748 755 757 750 743 753 761 747 740 746 750 756 757 761 767 768 771 773 776 780
818 815 812 809 806 802 798 795 791 788 785 782 778 775 772 769 766 763 760 759 757 757 756 757 759 762 765 763 760 751 734 732 735 734 735 736 736 737 738 739 741 742 743 743 744 743 745 747 745 750 759 757 759 762 760 758 756 754 760 762 760 758 755 753 754 751 750 750 745 748 753 749 746 755 758 743 739 746 752 758 758 762 766 766 769 772 775 778
818 815 812 808 805 801 797 794 790 786 782 779 776 772 770 766 763 760 758 756 754 754 754 755 758 760 763 761 752 739 733 734 734 733 735 735 736 737 737 739 739 741 741 740 742 741 744 744 744 755 757 753 760 766 758 750 754 757 759 767 763 757 756 752 751 748 748 750 739 743 759 757 753 755 748 739 741 745 750 757 758 761 764 766 768 770 774 776
817 814 811 808 804 800 796 792 788 784 780 777 773 770 768 764 761 759 756 755 753 752 752 754 757 759 762 755 739 732 734 735 734 734 735 735 736 737 738 740 740 742 741 740 741 742 745 744 746 751 749 751 758 758 751 746 754 760 759 766 766 763 760 746 743 744 746 746 734 747 772 763 750 748 740 736 741 746 752 755 757 759 761 765 767 769 773 774
817 814 810 806 803 799 795 791 787 782 778 774 771 769 765 762 760 758 756 754 752 752 752 754 757 760 759 745 730 730 733 734 735 734 734 735 735 737 738 739 741 742 742 742 742 743 745 744 746 748 747 749 749 748 753 754 757 761 762 764 766 770 760 739 736 743 748 743 731 750 775 760 744 743 737 735 740 745 752 753 754 756 758 762 764 767 771 771
816 813 809 805 802 798 793 790 785 780 776 772 769 767 763 761 760 758 757 755 753 753 753 756 758 758 754 740 728 729 731 732 733 732 734 734 734 736 736 739 741 741 743 743 743 743 745 744 747 752 750 746 748 756 762 761 758 760 768 770 765 766 757 740 737 741 747 742 732 752 772 758 743 740 735 735 739 744 750 752 752 754 756 759 761 764 768 769
815 812 808 805 801 797 793 788 784 779 774 771 768 765 762 760 759 759 758 756 756 756 756 758 757 756 751 737 727 727 728 728 728 730 733 732 732 733 735 739 740 742 744 744 744 745 745 746 748 749 750 751 757 763 763 765 764 759 767 770 760 759 757 748 741 735 738 741 739 750 763 756 744 739 734 735 738 742 748 750 750 753 754 756 759 760 763 766
814 811 807 803 800 796 792 787 783 777 773 770 767 763 761 760 759 759 758 758 758 757 758 756 755 756 745 728 726 726 723 724 725 728 730 731 732 732 734 737 739 741 742 743 745 745 746 748 750 750 751 754 756 760 769 774 771 762 764 765 755 753 755 753 748 736 733 743 745 747 754 752 742 737 736 735 737 742 746 748 749 752 753 755 757 758 760 763
814 811 806 802 799 795 790 786 781 776 773 769 765 763 761 760 760 760 759 759 759 759 759 755 756 756 739 723 725 723 718 720 723 725 727 729 731 732 733 735 737 740 744 746 746 746 750 749 752 757 757 756 753 757 769 769 762 760 761 763 759 754 755 754 749 740 736 744 747 748 754 751 741 736 737 736 735 741 744 744 746 748 751 754 755 756 757 759
815 810 806 802 798 794 790 786 781 776 772 768 765 763 760 759 759 759 759 758 757 753 748 747 748 742 730 721 719 718 717 720 721 723 724 726 730 732 732 733 736 741 747 751 750 747 750 752 756 761 758 755 752 750 756 752 748 751 750 755 758 755 754 748 742 736 736 746 748 747 750 747 741 737 737 736 734 739 741 740 743 746 748 750 753 754 754 756
814 810 806 801 797 793 789 785 781 776 772 768 765 761 761 762 756 753 756 755 750 742 735 736 736 728 723 721 717 717 719 719 720 720 720 723 726 730 731 732 737 743 746 749 750 743 747 757 758 755 750 746 747 745 746 743 743 747 747 750 752 751 750 740 738 735 734 748 749 741 744 743 740 737 733 733 734 738 740 741 742 743 746 747 749 750 751 754
813 809 805 800 797 792 789 785 781 777 774 770 767 764 768 772 765 761 760 749 739 737 733 729 729 725 721 718 717 718 719 719 718 716 718 721 722 729 731 732 741 746 741 740 743 741 746 755 749 743 742 739 740 742 744 744 745 749 750 751 750 749 747 736 737 738 734 747 748 738 743 743 737 735 728 727 734 738 737 738 740 740 743 744 746 748 749 751
813 809 804 800 795 791 788 785 782 779 776 773 771 771 775 779 777 775 772 754 734 731 731 724 724 722 716 716 717 719 722 723 720 715 715 718 719 726 728 730 739 740 736 736 740 746 751 748 739 734 734 735 738 739 743 747 748 751 750 751 751 744 742 737 736 737 735 745 748 740 744 742 732 729 726 726 731 733 730 731 734 736 740 742 743 746 747 749
813 808 805 800 794 791 787 785 784 780 778 777 775 776 778 779 778 777 776 763 737 721 720 719 718 717 714 716 715 718 724 723 721 715 711 716 717 718 722 728 733 732 733 734 736 745 749 739 729 728 729 735 741 740 745 749 749 750 748 751 750 740 743 746 740 738 737 740 743 741 743 740 730 727 725 723 724 725 725 725 727 730 735 738 739 741 744 747
812 808 805 800 794 790 786 785 783 781 781 780 778 779 779 779 778 776 772 762 737 715 707 707 709 709 708 709 710 715 720 715 715 712 706 712 715 714 718 721 727 729 728 727 729 735 736 725 719 725 728 735 744 745 746 751 750 747 744 747 746 739 741 743 739 740 740 738 737 742 752 745 732 732 727 718 720 723 723 725 727 727 729 732 734 737 739 742
812 808 804 800 796 789 785 785 783 783 783 779 779 779 779 778 776 776 772 757 735 711 701 700 703 703 700 704 708 708 713 711 707 704 701 705 709 711 715 713 719 726 723 723 728 730 726 716 716 726 729 734 743 744 742 747 749 746 740 739 740 739 739 739 740 745 753 753 737 741 766 756 730 728 726 718 723 726 724 726 730 729 728 730 733 735 736 737
812 808 803 800 797 790 785 783 784 785 780 778 780 778 779 778 774 776 772 756 729 702 697 701 700 699 697 702 703 703 714 709 695 697 698 701 702 703 713 712 710 717 716 719 725 724 718 712 717 726 730 736 741 739 736 739 748 748 734 730 735 738 741 742 744 750 760 758 735 734 764 762 735 727 722 721 729 729 726 728 728 728 729 730 731 732 733 735
811 808 803 799 796 793 788 785 787 785 780 780 780 778 779 776 775 776 767 751 720 690 693 702 698 696 695 697 698 704 714 699 688 695 693 697 699 698 710 712 709 711 706 715 728 719 712 714 720 725 729 735 738 735 731 732 746 744 726 725 733 737 742 743 745 750 750 747 738 734 750 762 750 732 719 720 730 730 728 729 727 725 727 727 727 727 728 730
810 807 803 799 796 795 792 790 789 784 783 783 779 779 778 774 776 772 765 749 709 679 688 697 695 693 692 695 695 696 698 689 692 696 686 692 698 698 709 706 705 709 699 711 726 712 706 714 719 723 728 731 728 726 723 728 740 734 721 726 732 735 739 740 744 748 743 748 756 743 742 761 756 732 718 719 728 733 729 726 725 722 723 723 724 723 722 724
809 805 803 799 794 793 792 791 789 785 785 782 779 779 774 775 775 765 764 746 696 676 688 691 693 695 693 698 699 693 689 688 694 690 683 691 693 694 705 700 700 707 700 704 714 706 702 705 708 717 725 723 719 717 715 724 733 725 721 729 732 733 736 739 744 745 746 757 761 746 740 757 754 731 722 724 728 732 724 718 717 716 716 718 718 718 717 719
807 804 802 798 794 792 791 789 787 785 783 780 778 776 772 775 769 760 763 735 688 682 691 688 694 697 695 701 701 696 694 691 690 689 689 691 691 693 698 694 696 704 703 703 707 702 696 697 701 709 715 711 710 713 711 717 723 720 725 734 737 736 736 739 740 744 757 761 752 741 737 749 753 732 720 720 718 718 716 711 708 708 710 712 712 713 713 715
805 802 799 797 794 793 790 787 785 784 782 779 776 773 771 769 759 755 746 710 687 694 692 692 697 695 696 700 696 694 695 692 688 691 695 692 695 700 700 700 701 707 710 708 708 704 699 704 705 702 702 703 709 714 712 712 716 721 730 738 744 745 744 749 748 751 767 762 743 733 730 744 751 730 712 707 700 700 706 706 703 704 706 706 707 707 707 709
803 799 796 794 793 792 791 787 784 783 780 777 774 769 767 765 756 747 723 695 699 708 699 701 703 696 698 698 693 690 691 692 688 689 693 692 695 697 697 698 699 710 715 709 710 709 703 704 703 701 698 699 711 719 718 717 719 724 731 739 751 758 763 769 764 759 763 753 734 726 730 739 733 714 706 701 693 691 694 695 694 696 698 699 702 702 701 704
801 797 794 793 791 792 791 787 785 783 779 776 773 765 763 764 751 733 715 702 710 716 708 708 705 699 700 696 691 687 686 687 685 686 688 688 692 692 692 689 685 698 705 703 709 712 709 704 699 703 701 695 704 716 723 725 722 726 731 737 750 759 772 781 768 759 757 744 728 723 732 738 724 706 698 693 691 687 685 686 687 687 689 692 695 696 697 699
799 795 793 792 791 791 789 787 784 782 779 775 770 762 763 764 743 721 717 716 719 720 715 713 708 703 698 691 687 684 686 684 679 683 685 685 691 692 691 688 682 686 692 696 702 704 713 711 696 697 698 693 697 702 708 714 719 722 719 725 738 741 754 765 757 754 752 738 727 728 737 738 725 707 688 680 682 681 681 682 681 682 683 684 687 690 693 695
797 794 793 791 791 790 788 787 783 781 780 773 767 763 762 757 738 724 726 729 730 728 720 715 710 706 697 687 685 684 686 685 677 679 683 683 687 686 685 686 682 682 689 696 695 691 702 699 681 682 685 686 695 693 691 705 720 717 710 721 730 724 729 739 737 733 734 734 730 730 730 717 704 694 681 679 679 677 679 678 677 681 679 679 684 686 689 691
796 794 792 791 790 789 787 785 782 781 778 771 767 762 754 744 734 733 737 739 739 736 729 716 704 704 698 686 686 687 684 683 680 680 680 678 679 678 678 680 678 677 681 688 686 685 697 692 673 677 683 680 688 689 686 699 712 712 713 721 715 706 715 732 736 728 733 745 734 722 723 712 702 697 683 682 685 679 680 678 676 679 677 678 683 683 684 686
797 794 792 790 789 788 786 783 781 780 775 770 768 760 749 741 736 740 745 744 742 739 736 726 707 704 702 690 687 690 688 685 682 682 680 675 680 684 682 681 681 679 679 684 680 673 684 688 673 676 688 681 676 683 685 686 692 704 715 711 702 706 713 723 739 739 744 753 732 714 719 716 716 709 685 681 689 684 680 678 676 676 677 680 681 680 681 680
799 794 790 789 789 786 784 782 779 777 772 768 766 758 751 748 746 748 749 747 746 742 740 736 719 710 710 704 697 694 694 689 682 681 677 672 683 695 693 689 688 684 683 686 683 669 672 686 681 675 683 680 673 685 694 687 681 690 697 692 699 722 727 727 740 743 743 748 732 715 713 709 710 705 688 686 688 683 679 678 677 676 676 677 677 677 678 677
800 793 787 787 788 785 783 781 777 773 770 766 762 756 753 754 753 753 752 750 749 746 742 735 723 716 715 714 709 702 699 694 686 681 677 676 689 698 697 695 693 689 686 686 684 673 670 685 688 675 672 677 680 687 696 695 687 685 688 688 694 709 717 721 726 726 730 737 730 720 715 706 696 686 683 685 681 677 678 676 676 674 671 672 672 672 674 675
801 794 787 787 788 784 781 779 774 770 769 767 764 760 759 760 758 755 755 754 751 748 744 735 728 725 719 716 714 709 704 700 693 687 684 687 697 701 701 700 698 693 688 686 683 676 674 683 688 678 669 677 685 683 683 689 690 693 697 698 698 699 702 708 711 709 715 725 726 724 720 703 680 669 672 677 674 672 672 672 673 670 666 666 666 666 668 671
799 792 787 788 788 785 779 776 772 770 769 770 769 768 766 764 763 760 757 756 753 747 742 738 735 731 725 721 716 711 709 705 697 692 692 695 699 703 703 702 701 696 690 688 684 680 681 682 684 682 677 680 679 670 668 673 678 687 693 694 695 698 702 715 721 708 703 712 716 720 722 700 673 665 666 667 668 667 665 667 668 665 663 662 660 661 663 666
799 793 789 790 790 785 779 775 773 772 772 774 774 772 769 767 767 765 760 759 756 748 741 738 736 732 728 724 718 713 712 709 701 697 698 701 704 707 705 702 700 694 689 687 684 682 684 682 682 682 678 675 668 660 662 665 666 676 682 682 685 690 696 713 723 711 704 708 703 709 720 700 669 663 665 664 664 661 660 662 664 662 660 659 658 658 660 664
803 798 793 793 791 785 779 778 777 776 775 776 774 771 770 770 770 768 765 765 762 755 747 741 736 732 728 725 722 717 714 712 707 702 701 706 709 710 706 703 699 693 688 689 687 686 687 687 689 685 674 667 661 658 661 661 664 675 677 673 677 682 684 693 698 695 701 707 702 712 724 701 670 663 665 662 661 659 657 658 660 661 659 657 659 659 661 664
804 798 793 793 792 785 783 786 788 785 780 778 775 772 772 771 771 771 769 769 770 766 760 750 741 737 732 728 725 721 717 716 713 707 706 708 711 710 706 704 701 696 696 699 695 692 691 689 690 694 693 691 686 681 677 669 667 672 671 669 671 673 677 684 685 688 699 699 696 710 719 695 671 667 665 662 662 661 659 656 656 660 660 659 659 660 663 665
804 797 792 792 791 788 787 791 793 790 785 783 778 774 774 771 771 772 771 770 771 771 768 761 752 746 738 731 726 720 717 717 716 712 710 710 710 710 707 705 704 701 701 703 698 693 692 687 684 692 699 702 700 694 686 674 669 669 667 666 668 669 675 683 687 695 705 700 692 701 703 687 675 674 670 667 666 665 663 658 655 657 659 659 660 663 665 666
807 802 799 796 791 788 789 790 792 791 789 788 783 777 776 773 771 772 771 770 771 771 772 769 760 753 747 738 729 723 718 716 716 716 715 713 712 711 709 707 706 704 705 702 695 693 693 689 686 690 692 690 691 688 679 670 669 672 671 668 667 667 670 677 687 694 698 700 698 694 691 688 685 681 676 671 669 668 666 662 659 657 658 660 663 665 665 664
810 807 808 808 800 793 791 789 790 792 790 788 785 781 780 777 774 773 773 772 773 775 774 771 765 763 761 754 741 729 723 720 719 720 721 718 715 711 708 707 707 706 705 700 694 694 696 694 692 695 695 690 688 686 680 674 671 670 670 669 668 667 668 675 684 683 683 697 703 690 685 693 689 679 676 674 670 669 667 663 660 658 659 660 661 663 664 663
812 809 810 814 810 802 798 795 794 794 790 787 785 783 782 779 777 777 776 774 776 779 778 774 771 770 770 768 757 741 732 728 725 725 726 724 720 714 709 708 708 707 705 700 697 699 700 697 693 695 696 692 687 685 683 681 679 675 673 671 670 669 671 675 679 675 677 691 697 685 684 693 686 674 672 670 668 668 665 661 657 656 658 658 660 662 662 661
815 813 809 811 811 806 802 799 796 793 790 788 786 784 783 781 778 779 779 775 776 780 784 782 778 775 772 770 765 756 746 740 737 737 736 731 727 720 714 712 709 707 707 705 703 703 704 701 698 699 698 693 689 687 685 685 686 685 681 677 676 674 673 675 677 673 674 681 682 680 685 687 678 671 668 663 661 662 661 658 657 657 657 657 659 662 661 658
819 817 814 813 810 804 800 797 794 792 788 787 786 783 783 783 781 780 778 775 776 780 784 784 781 777 774 770 768 765 759 753 751 749 743 738 732 726 722 720 716 714 713 711 709 707 706 707 704 701 700 696 690 687 688 688 689 690 686 681 680 680 679 680 680 678 679 682 679 679 687 685 672 665 664 661 660 661 663 664 663 660 659 658 659 660 659 658
820 819 819 819 812 803 799 795 792 791 786 785 786 785 786 785 783 781 777 776 783 786 784 783 781 776 773 771 769 767 761 758 756 750 744 741 737 733 731 726 724 724 720 717 716 712 710 710 704 703 706 699 690 690 691 688 690 692 689 684 682 683 682 681 680 679 682 685 685 686 690 686 671 664 665 665 664 666 668 667 666 663 660 658 659 658 657 657
819 818 818 821 815 804 799 795 790 789 786 785 788 787 786 784 781 781 781 780 782 782 779 778 778 774 771 771 770 766 761 758 755 749 745 742 737 735 734 729 727 729 726 723 721 716 715 715 707 706 709 698 690 694 692 693 702 699 685 677 678 679 678 677 676 675 674 678 684 685 682 675 667 665 667 668 667 667 666 664 664 663 660 658 657 655 653 652